Uvalde, Texas, United States (78801)
Lat: 29.21N, Lon: 99.79W
Wx Zone: TXZ203
Local Info
Past Weather Observations for Today

NOTE: This archive is for the closest National Weather Service station to Uvalde. Information may differ from the station used for current weather conditions.

Click here for Long-term Archive

Time Weather Temperature Dewpoint Humidity Pressure Winds Precip Visibility
10:55
Clear
73°F / 23°C 50°F / 10°C 44% 30.3 in
(1026 mb)
ENE 13.8 mph
(ENE 22 kph)
- 10SM
10:35
Clear
73°F / 23°C 52°F / 11°C 47% 30.3 in
(1026 mb)
NE 12.7 mph
(NE 20 kph)
- 10SM
10:15
Partly Cloudy
73°F / 23°C 54°F / 12°C 50% 30.3 in
(1026 mb)
ENE 17.3 mph
(ENE 28 kph)
- 10SM
09:55
Mostly Cloudy
73°F / 23°C 55°F / 13°C 53% 30.3 in
(1026 mb)
NE 18.4 mph
(NE 30 kph)
- 10SM
09:35
Mostly Cloudy
70°F / 21°C 55°F / 13°C 60% 30.3 in
(1026 mb)
NE 15 mph
(NE 24 kph)
- 10SM
09:15
Mostly Cloudy
70°F / 21°C 57°F / 14°C 64% 30.27 in
(1025 mb)
NE 16.1 mph
(NE 26 kph)
- 10SM
08:55
Clear
68°F / 20°C 57°F / 14°C 69% 30.27 in
(1025 mb)
NE 13.8 mph
(NE 22 kph)
- 10SM
08:35
Clear
68°F / 20°C 63°F / 17°C 83% 30.27 in
(1025 mb)
NE 11.5 mph
(NE 19 kph)
- 10SM
08:15
Partly Cloudy
68°F / 20°C 66°F / 19°C 94% 30.24 in
(1024 mb)
NE 6.9 mph
(NE 11 kph)
- 10SM
07:55
Mostly Cloudy
68°F / 20°C 66°F / 19°C 94% 30.24 in
(1024 mb)
NE 9.2 mph
(NE 15 kph)
- 10SM
07:35
Mostly Cloudy
68°F / 20°C 66°F / 19°C 94% 30.24 in
(1024 mb)
ENE 8.1 mph
(ENE 13 kph)
- 10SM
07:15
Mostly Cloudy
Thunder Storms
68°F / 20°C 66°F / 19°C 94% 30.24 in
(1024 mb)
NE 8.1 mph
(NE 13 kph)
- 10SM
06:55
Overcast
Thunder Storms
68°F / 20°C 66°F / 19°C 94% 30.21 in
(1023 mb)
ENE 9.2 mph
(ENE 15 kph)
- 10SM
06:35
Overcast
Rain
68°F / 20°C 66°F / 19°C 94% 30.21 in
(1023 mb)
ENE 11.5 mph
(ENE 19 kph)
- 10SM
06:15
Overcast
Thunder Storms
68°F / 20°C 66°F / 19°C 94% 30.21 in
(1023 mb)
NE 11.5 mph
(NE 19 kph)
- 10SM
05:55
Overcast
68°F / 20°C 68°F / 20°C 100% 30.21 in
(1023 mb)
ENE 6.9 mph
(ENE 11 kph)
0.10 in
(2.54 mm)
10SM
05:35
Overcast
68°F / 20°C 66°F / 19°C 94% 30.18 in
(1022 mb)
E 6.9 mph
(E 11 kph)
0.10 in
(2.54 mm)
3SM
05:15
Overcast
Thunder Storms
68°F / 20°C 68°F / 20°C 100% 30.18 in
(1022 mb)
ENE 5.8 mph
(ENE 9 kph)
- 7SM
04:55
Overcast
Thunder Storms
68°F / 20°C 66°F / 19°C 94% 30.15 in
(1021 mb)
ENE 5.8 mph
(ENE 9 kph)
0.26 in
(6.60 mm)
10SM
04:35
Overcast
68°F / 20°C 66°F / 19°C 94% 30.15 in
(1021 mb)
NE 11.5 mph
(NE 19 kph)
0.25 in
(6.35 mm)
3SM
04:15
Overcast
Rain
68°F / 20°C 66°F / 19°C 94% 30.15 in
(1021 mb)
NE 8.1 mph
(NE 13 kph)
0.02 in
(0.51 mm)
7SM
03:55
Overcast
68°F / 20°C 66°F / 19°C 94% 30.15 in
(1021 mb)
NE 5.8 mph
(NE 9 kph)
- 10SM
03:35
Mostly Cloudy
Thunder Storms
68°F / 20°C 64°F / 18°C 88% 30.12 in
(1020 mb)
ENE 6.9 mph
(ENE 11 kph)
- 10SM
03:15
Partly Cloudy
Thunder Storms
68°F / 20°C 63°F / 17°C 83% 30.12 in
(1020 mb)
N 3.5 mph
(N 6 kph)
- 10SM
02:55
Partly Cloudy
66°F / 19°C 63°F / 17°C 88% 30.12 in
(1020 mb)
Calm - 10SM
02:35
Clear
Thunder Storms
66°F / 19°C 63°F / 17°C 88% 30.12 in
(1020 mb)
ENE 3.5 mph
(ENE 6 kph)
- 10SM
02:15
Clear
66°F / 19°C 63°F / 17°C 88% 30.12 in
(1020 mb)
NE 4.6 mph
(NE 7 kph)
- 10SM
01:55
Clear
66°F / 19°C 63°F / 17°C 88% 30.12 in
(1020 mb)
NE 5.8 mph
(NE 9 kph)
- 7SM
01:35
Clear
68°F / 20°C 64°F / 18°C 88% 30.12 in
(1020 mb)
Calm - 10SM
01:15
Clear
66°F / 19°C 61°F / 16°C 83% 30.09 in
(1019 mb)
NE 3.5 mph
(NE 6 kph)
- 10SM
00:55
Partly Cloudy
68°F / 20°C 63°F / 17°C 83% 30.09 in
(1019 mb)
Calm - 10SM
00:35
Partly Cloudy
68°F / 20°C 61°F / 16°C 78% 30.12 in
(1020 mb)
Calm - 10SM
00:15
Clear
68°F / 20°C 61°F / 16°C 78% 30.12 in
(1020 mb)
NE 4.6 mph
(NE 7 kph)
- 10SM
Time Weather Temperature Dewpoint Humidity Pressure Winds Precip Visibility


Weather for websites

WeatherForYou.com, LLC is not responsible for any damages or problems caused by this service. Current weather conditions are obtained from the closest station including government and personal stations which may have varying degrees of accuracy. Weather forecasts are derived from the NOAA NDFD. Like all things, this site belongs to Jesus Christ... He just trusts me to maintain it. If you have any questions or comments email webmaster@weatherforyou.com

Copyright © 2014, WeatherForYou.com LLC. All rights reserved.